Regional Weather Roundup
Issued by NWS Newport/Morehead, NC

Current Version | Previous Version | Text Only | Print | Product List | Glossary On
Versions: 1 2 3 4 5 6 7 8 9 10 11 12 13 14 15 16 17 18 19 20 21 22 23 24 25 26 27 28 29 30 31 32 33 34 35 36 37 38 39 40 41 42 43 44 45 46 47 48 49 50
000 ASUS42 KMHX 230322 RWRMHX WEATHER ROUNDUP FOR EASTERN NORTH CAROLINA NATIONAL WEATHER SERVICE NEWPORT/MOREHEAD CITY NC 1100 PM EDT FRI AUG 22 2014 NOTE: "FAIR" INDICATES FEW OR NO CLOUDS BELOW 12,000 FEET WITH NO SIGNIFICANT WEATHER AND/OR OBSTRUCTIONS TO VISIBILITY NCZ015>017-031-032-045>047-102-103-230400- NORTH COAST CITY SKY/WX TMP DP RH WIND PRES REMARKS EDENTON MOCLDY 76 72 87 CALM 29.96S ELIZABETH CITY PTCLDY 76 71 85 N5 29.96R KITTY HAWK PTCLDY 77 73 88 CALM 29.94S MANTEO MOCLDY 75 73 94 N5 29.95S $$ NCZ045>047-081-094-103-104-230400- CENTRAL COAST CITY SKY/WX TMP DP RH WIND PRES REMARKS FRISCO PTCLDY 76 73 91 NE5 29.94F SWANQUARTER N/A 77 N/A N/A E1 29.91S $$ NCZ095-097-098-100-101-230400- SOUTHERN COAST CITY SKY/WX TMP DP RH WIND PRES REMARKS BEAUFORT CLOUDY 83 75 77 NE6 29.95R CEDAR ISLAND N/A 82 N/A N/A NE6 30.00R JACKSONVILLE CLOUDY 79 72 79 NW5 29.96R NEWPORT NOT AVBL PINEY ISLAND MOCLDY 83 75 77 N6 29.95R WILMINGTON MOCLDY 74 72 93 SW3 29.96S $$ NCZ011>013-027>030-043-044-078>080-089-090>093-098-230400- COASTAL PLAIN CITY SKY/WX TMP DP RH WIND PRES REMARKS AHOSKIE MOCLDY 73 71 93 CALM 29.98S CLINTON PTCLDY 72 72 100 CALM 29.98 ELIZABETHTOWN PTCLDY 75 71 88 CALM 29.97R GOLDSBORO PTCLDY 75 75 98 SW3 29.95R GREENVILLE PTCLDY 77 72 83 CALM 29.99R HAVELOCK MOCLDY 82 74 76 NE3 29.96R KENANSVILLE PTCLDY 71 70 95 CALM 29.98R KINSTON PTCLDY 75 73 93 CALM 29.97S NEW BERN PTCLDY 80 73 79 N5 29.97R RICHLANDS PTCLDY 73 70 88 CALM 29.97S ROANOKE RAPIDS NOT AVBL ROCKY MOUNT MOCLDY 76 74 93 CALM 29.97R WASHINGTON MOCLDY 76 72 88 CALM 29.97S WHITEVILLE CLEAR 77 73 85 CALM 29.97R $$ AMZ130-135-150-152-154-156-158-170-250-252-270-ANZ085-086-088-633-658-670-230400- MARINE OBSERVATIONS STATION/POSITION TIME TEMP WIND PRES WAVE SWELL AIR SEA DIR/SP/G HT/PER HT/PER (UTC) (F) (DEG/KT/KT) (MB) (FT/S) (FT/S) CHESAPEAKE LIGHT 0300 76 60/ 12/ 13 1015.2 BUOY 44014 0300 77 78 20/ 8/ 8 1013.6 2/ 8 2/ 8 DUCK 0300 78 81 10/ 6/ 7 1013.6 2E DUCK 0200 N/A 2/ 7 OREGON INLET 0300 78 84 360/ 4/ 6 1014.1 BUOY 44095 0300 80 N/A 2/ 7 20E OREGON INLET NOT AVBL HATTERAS CG 0300 80 83 70/ 3/ 5 1014.5 DIAMOND BUOY 0300 79 350/ 8/ 10 1013.8 2/ 8 2/ 8 CAPE LOOKOUT 0300 82 40/ 2/ 3 1014.1 BEAUFORT LAB 0300 83 83 20/ 3/ 5 1013.9 30 SE NEW RIVER 0300 81 83 280/ 16/ 17 1013.5 2/ 3 5 SE WRIGHTSVILL 0300 78 83 240/ 14/ 14 N/A BUOY 41002 0229 82 82 240/ 12/ 14 1015.7 2/ 5 2/ 9 BUOY 41004 0300 85 85 200/ 10/ 10 1014.1 2/ 9 2/ 9 $$

USA.gov is the U.S. government's official web portal to all federal, state and local government web resources and services.